Weather History for Nome, AK

Change the Weather History Date:

Thursday, April 25, 2013

  Actual Average Record
Temperature  
Mean Temperature 22 °F 26 °F  
Max Temperature 28 °F 32 °F 60 °F (1940)
Min Temperature 15 °F 20 °F -17 °F (1964)
Degree Days  
Heating Degree Days 43 39  
Month to date heating degree days 1260 1149  
Since 1 July heating degree days 12549 12127  
Cooling Degree Days 0    
Month to date cooling degree days 0  
Year to date cooling degree days 0  
Moisture  
Dew Point 19 °F    
Average Humidity 0    
Maximum Humidity 0    
Minimum Humidity 0    
Precipitation  
Precipitation 0.00 in 0.03 in 0.30 in (1948)
Month to date precipitation 0.29 0.62  
Year to date precipitation 2.45 3.14  
Snow  
Snow 0.00 in 0.30 in 3.00 in (1910)
Month to date snowfall 4.4 6.6  
Since 1 July snowfall 54.8 72.2  
Snow Depth 14.00 in    
Sea Level Pressure  
Sea Level Pressure 30.36 in    
Wind  
Wind Speed 4 mph (WSW)    
Max Wind Speed 10 mph    
Max Gust Speed 12 mph    
Visibility 10 miles    
Events      
T = Trace of Precipitation, MM = Missing Value Source: NWS Daily Summary

Daily Weather History Graph

Daily Weather History Graph

Search for Another Location

Airport:

Trip Planner

Search our weather history database for the weather conditions in past years. The results will help you decide how hot, cold, wet, or windy it might be!

Date:

Astronomy

Apr. 25, 2013 Rise Set
Actual Time 6:50 AM AKDT 11:10 PM AKDT
Civil Twilight 5:46 AM AKDT 12:16 AM AKDT
Nautical Twilight 3:25 AM AKDT 2:27 AM AKDT
Astronomical Twilight Sun does not rise Sun does not rise
Moon 11:58 PM AKDT (4/25) 6:42 AM AKDT (4/25)
Length of Visible Light 18h 30m
Length of Day
16h 20m
Full, 100% of the Moon is Illuminated
Apr 25
Full
May 2
Last Quarter
May 9
New
May 17
First Quarter
May 24
Full

Hourly Weather History & Observations

Time (AKDT) Temp. Windchill Dew Point Humidity Pressure Visibility Wind Dir Wind Speed Gust Speed Precip Events Conditions
12:53 AM 26.1 °F - 19.9 °F 78% 30.43 in 10.0 mi Calm Calm - N/A   Scattered Clouds
1:53 AM 23.0 °F - 17.1 °F 78% 30.44 in 10.0 mi Calm Calm - N/A   Scattered Clouds
2:53 AM 21.9 °F - 16.0 °F 78% 30.44 in 10.0 mi Calm Calm - N/A   Clear
3:53 AM 19.9 °F 12.1 °F 15.1 °F 81% 30.44 in 10.0 mi SW 5.8 mph - N/A   Scattered Clouds
4:53 AM 19.9 °F - 15.1 °F 81% 30.44 in 10.0 mi Calm Calm - N/A   Scattered Clouds
5:53 AM 19.9 °F - 15.1 °F 81% 30.44 in 10.0 mi Calm Calm - N/A   Scattered Clouds
6:53 AM 17.1 °F - 12.0 °F 81% 30.45 in 10.0 mi Calm Calm - N/A   Scattered Clouds
7:53 AM 18.0 °F 12.7 °F 12.9 °F 81% 30.43 in 10.0 mi SE 3.5 mph - N/A   Scattered Clouds
8:53 AM 19.9 °F - 14.0 °F 78% 30.41 in 10.0 mi Calm Calm - N/A   Scattered Clouds
9:53 AM 21.0 °F 13.4 °F 14.0 °F 74% 30.40 in 10.0 mi West 5.8 mph - N/A   Scattered Clouds
10:53 AM 24.1 °F 17.0 °F 16.0 °F 71% 30.39 in 10.0 mi SW 5.8 mph - N/A   Scattered Clouds
11:53 AM 18.0 °F 12.7 °F 14.0 °F 84% 30.39 in 10.0 mi SSW 3.5 mph - N/A   Scattered Clouds
12:53 PM 25.0 °F 20.7 °F 19.9 °F 81% 30.40 in 10.0 mi West 3.5 mph - N/A   Scattered Clouds
1:53 PM 26.1 °F 20.5 °F 21.0 °F 81% 30.38 in 10.0 mi WSW 4.6 mph - N/A   Scattered Clouds
2:53 PM 27.0 °F 20.5 °F 21.9 °F 81% 30.38 in 10.0 mi West 5.8 mph - N/A   Scattered Clouds
3:53 PM 28.0 °F 19.3 °F 21.0 °F 75% 30.37 in 10.0 mi West 9.2 mph - N/A   Mostly Cloudy
4:53 PM 28.0 °F 21.7 °F 21.9 °F 78% 30.33 in 10.0 mi WSW 5.8 mph - N/A   Mostly Cloudy
5:53 PM 28.0 °F 21.7 °F 23.0 °F 81% 30.32 in 10.0 mi SSW 5.8 mph - N/A   Mostly Cloudy
6:53 PM 28.0 °F 19.3 °F 24.1 °F 85% 30.30 in 10.0 mi WSW 9.2 mph - N/A   Mostly Cloudy
7:53 PM 28.9 °F 23.9 °F 25.0 °F 85% 30.27 in 10.0 mi West 4.6 mph - N/A   Mostly Cloudy
8:53 PM 28.9 °F 25.2 °F 25.0 °F 85% 30.25 in 10.0 mi West 3.5 mph - N/A   Overcast
9:53 PM 28.9 °F - 25.0 °F 85% 30.22 in 10.0 mi Calm Calm - N/A   Overcast
10:53 PM 28.9 °F 22.8 °F 25.0 °F 85% 30.20 in 10.0 mi WNW 5.8 mph - N/A   Overcast
11:53 PM 30.9 °F 24.3 °F 24.1 °F 76% 30.18 in 10.0 mi WSW 6.9 mph - N/A   Overcast